JIA25 KPHL-KCAK

Flight info

Callsign JIA25
Flight time 1h 0m
Altitude 38000
Route PTW SARAA RAV PSB SOORD ZZIPS1
Aircraft CRJ9/M-SDFGIRWY/S

Departure

Time 2026-04-26 19:30
Airport Philadelphia International Airport (KPHL)

Arrival

Time 2026-04-26 20:31
Airport Akron Canton Regional Airport (KCAK)
Time Latitude Longitude Altitude Speed Heading
2026-04-26 19:17 39.87396 -75.24162 20 ft 0 kts 47°
2026-04-26 19:21 39.87387 -75.24176 30 ft 4 kts 54°
2026-04-26 19:21 39.87377 -75.24206 20 ft 4 kts 83°
2026-04-26 19:21 39.87382 -75.24230 22 ft 4 kts 146°
2026-04-26 19:22 39.87393 -75.24234 24 ft 1 kts 172°
2026-04-26 19:22 39.87394 -75.24234 24 ft 0 kts 172°
2026-04-26 19:23 39.87391 -75.24234 25 ft 0 kts 172°
2026-04-26 19:23 39.87385 -75.24233 20 ft 1 kts 172°
2026-04-26 19:23 39.87381 -75.24232 20 ft 0 kts 172°
2026-04-26 19:24 39.87379 -75.24232 20 ft 1 kts 172°
2026-04-26 19:24 39.87370 -75.24230 22 ft 2 kts 172°
2026-04-26 19:24 39.87349 -75.24233 20 ft 3 kts 194°
2026-04-26 19:25 39.87338 -75.24239 20 ft 2 kts 203°
2026-04-26 19:25 39.87333 -75.24243 21 ft 1 kts 216°
2026-04-26 19:25 39.87319 -75.24263 21 ft 4 kts 240°
2026-04-26 19:25 39.87305 -75.24311 20 ft 7 kts 252°
2026-04-26 19:26 39.87291 -75.24376 20 ft 8 kts 254°
2026-04-26 19:26 39.87277 -75.24449 20 ft 8 kts 255°
2026-04-26 19:26 39.87262 -75.24525 20 ft 9 kts 256°
2026-04-26 19:26 39.87245 -75.24610 22 ft 10 kts 256°
2026-04-26 19:27 39.87227 -75.24705 21 ft 11 kts 256°
2026-04-26 19:27 39.87206 -75.24810 20 ft 12 kts 255°
2026-04-26 19:27 39.87183 -75.24924 20 ft 14 kts 255°
2026-04-26 19:27 39.87158 -75.25047 22 ft 15 kts 256°
2026-04-26 19:28 39.87131 -75.25176 20 ft 15 kts 255°
2026-04-26 19:28 39.87105 -75.25311 20 ft 16 kts 256°
2026-04-26 19:28 39.87076 -75.25452 20 ft 15 kts 243°
2026-04-26 19:28 39.87060 -75.25475 21 ft 0 kts 217°
2026-04-26 19:29 39.87059 -75.25477 20 ft 1 kts 216°
2026-04-26 19:29 39.87035 -75.25483 20 ft 7 kts 181°
2026-04-26 19:29 39.86963 -75.25465 20 ft 14 kts 166°
2026-04-26 19:29 39.86910 -75.25350 18 ft 20 kts 77°
2026-04-26 19:30 39.86974 -75.25032 20 ft 68 kts 76°
2026-04-26 19:30 39.87159 -75.24111 25 ft 138 kts 74°
2026-04-26 19:30 39.87452 -75.22718 329 ft 177 kts 73°
2026-04-26 19:30 39.87682 -75.21634 866 ft 186 kts 71°
2026-04-26 19:31 39.88381 -75.19696 2503 ft 174 kts 47°
2026-04-26 19:31 39.89389 -75.18732 3086 ft 196 kts 22°
2026-04-26 19:31 39.90783 -75.18473 3847 ft 207 kts 353°
2026-04-26 19:31 39.92117 -75.19294 4634 ft 228 kts 319°
2026-04-26 19:32 39.93144 -75.20970 5300 ft 242 kts 319°
2026-04-26 19:32 39.94454 -75.22408 6023 ft 252 kts 325°
2026-04-26 19:32 39.95820 -75.23808 6898 ft 255 kts 324°
2026-04-26 19:32 39.97197 -75.25285 7805 ft 258 kts 322°
2026-04-26 19:33 39.98532 -75.26867 8726 ft 261 kts 319°
2026-04-26 19:33 39.99872 -75.28546 9370 ft 276 kts 318°
2026-04-26 19:33 40.01209 -75.30250 10566 ft 266 kts 318°
2026-04-26 19:33 40.02583 -75.31973 11158 ft 282 kts 319°
2026-04-26 19:34 40.04040 -75.33762 11811 ft 291 kts 319°
2026-04-26 19:34 40.05521 -75.35575 12725 ft 293 kts 319°
2026-04-26 19:34 40.07009 -75.37400 13635 ft 294 kts 319°
2026-04-26 19:34 40.08511 -75.39242 14480 ft 297 kts 319°
2026-04-26 19:35 40.10021 -75.41095 15277 ft 299 kts 319°
2026-04-26 19:35 40.11546 -75.42967 16052 ft 302 kts 319°
2026-04-26 19:35 40.13084 -75.44857 16827 ft 305 kts 319°
2026-04-26 19:35 40.14634 -75.46763 17599 ft 307 kts 319°
2026-04-26 19:36 40.16177 -75.48663 18312 ft 310 kts 319°
2026-04-26 19:36 40.17240 -75.49970 18754 ft 312 kts 319°
2026-04-26 19:36 40.19345 -75.52563 19571 ft 315 kts 319°
2026-04-26 19:36 40.20948 -75.54542 20177 ft 318 kts 318°
2026-04-26 19:37 40.22549 -75.56554 20765 ft 321 kts 317°
2026-04-26 19:37 40.24087 -75.58696 21351 ft 325 kts 314°
2026-04-26 19:37 40.25571 -75.60945 21936 ft 327 kts 312°
2026-04-26 19:37 40.27045 -75.63237 22487 ft 330 kts 312°
2026-04-26 19:38 40.28530 -75.65562 23037 ft 333 kts 312°
2026-04-26 19:38 40.30054 -75.67885 23326 ft 343 kts 313°
2026-04-26 19:38 40.31644 -75.70284 23651 ft 350 kts 313°
2026-04-26 19:38 40.33227 -75.72673 24097 ft 353 kts 313°
2026-04-26 19:39 40.34841 -75.75110 24512 ft 355 kts 312°
2026-04-26 19:39 40.36464 -75.77562 24935 ft 357 kts 312°
2026-04-26 19:39 40.38098 -75.80030 25356 ft 359 kts 312°
2026-04-26 19:39 40.39739 -75.82513 25758 ft 361 kts 312°
2026-04-26 19:40 40.41394 -75.85021 26153 ft 363 kts 312°
2026-04-26 19:40 40.42893 -75.87703 26439 ft 370 kts 300°
2026-04-26 19:40 40.43923 -75.90872 26463 ft 384 kts 294°
2026-04-26 19:40 40.44851 -75.94210 26509 ft 395 kts 290°
2026-04-26 19:41 40.45529 -75.97724 26887 ft 398 kts 285°
2026-04-26 19:41 40.46058 -76.01314 27228 ft 401 kts 284°
2026-04-26 19:41 40.46561 -76.04919 27557 ft 403 kts 283°
2026-04-26 19:41 40.46907 -76.07311 27772 ft 403 kts 284°
2026-04-26 19:42 40.47666 -76.12074 28539 ft 396 kts 285°
2026-04-26 19:42 40.48243 -76.15608 28931 ft 397 kts 285°
2026-04-26 19:42 40.48816 -76.19166 29243 ft 398 kts 285°
2026-04-26 19:42 40.49390 -76.22731 29535 ft 400 kts 285°
2026-04-26 19:43 40.49965 -76.26317 29835 ft 401 kts 285°
2026-04-26 19:43 40.50539 -76.29910 30109 ft 403 kts 285°
2026-04-26 19:43 40.51116 -76.33524 30356 ft 404 kts 285°
2026-04-26 19:43 40.51688 -76.37127 30840 ft 398 kts 285°
2026-04-26 19:44 40.52253 -76.40672 31179 ft 397 kts 285°
2026-04-26 19:44 40.52820 -76.44235 31402 ft 399 kts 285°
2026-04-26 19:44 40.53386 -76.47815 31599 ft 400 kts 285°
2026-04-26 19:44 40.53947 -76.51367 31791 ft 402 kts 285°
2026-04-26 19:45 40.54512 -76.54959 32081 ft 401 kts 285°
2026-04-26 19:45 40.55077 -76.58554 32348 ft 401 kts 285°
2026-04-26 19:45 40.55803 -76.62086 32613 ft 398 kts 290°
2026-04-26 19:45 40.56703 -76.65531 32876 ft 397 kts 293°
2026-04-26 19:46 40.57677 -76.68916 33145 ft 397 kts 293°
2026-04-26 19:46 40.58651 -76.72327 33392 ft 397 kts 293°
2026-04-26 19:46 40.59589 -76.75738 33664 ft 396 kts 292°
2026-04-26 19:46 40.60508 -76.79163 33928 ft 396 kts 292°
2026-04-26 19:47 40.61405 -76.82540 34189 ft 395 kts 292°
2026-04-26 19:47 40.62017 -76.84851 34318 ft 395 kts 292°
2026-04-26 19:47 40.63215 -76.89374 34590 ft 395 kts 292°
2026-04-26 19:47 40.64122 -76.92795 34805 ft 395 kts 291°
2026-04-26 19:48 40.65026 -76.96208 34996 ft 395 kts 291°
2026-04-26 19:48 40.65927 -76.99624 35226 ft 394 kts 291°
2026-04-26 19:48 40.66826 -77.03038 35404 ft 394 kts 291°
2026-04-26 19:48 40.67722 -77.06444 35597 ft 394 kts 291°
2026-04-26 19:49 40.68621 -77.09863 35778 ft 394 kts 291°
2026-04-26 19:49 40.69519 -77.13281 35958 ft 394 kts 290°
2026-04-26 19:49 40.70413 -77.16697 36120 ft 394 kts 290°
2026-04-26 19:49 40.71307 -77.20114 36295 ft 394 kts 290°
2026-04-26 19:50 40.72190 -77.23489 36465 ft 394 kts 290°
2026-04-26 19:50 40.73085 -77.26917 36633 ft 394 kts 290°
2026-04-26 19:50 40.73977 -77.30340 36781 ft 394 kts 290°
2026-04-26 19:50 40.74868 -77.33764 36930 ft 395 kts 290°
2026-04-26 19:51 40.75748 -77.37196 37063 ft 396 kts 289°
2026-04-26 19:51 40.76616 -77.40640 37247 ft 395 kts 289°
2026-04-26 19:51 40.77483 -77.44075 37377 ft 396 kts 289°
2026-04-26 19:51 40.78358 -77.47502 37734 ft 390 kts 289°
2026-04-26 19:52 40.79231 -77.50876 37993 ft 388 kts 289°
2026-04-26 19:52 40.80090 -77.54210 38093 ft 389 kts 289°
2026-04-26 19:52 40.81838 -77.61006 38161 ft 391 kts 289°
2026-04-26 19:53 40.83586 -77.67810 38188 ft 391 kts 289°
2026-04-26 19:53 40.85328 -77.74616 38189 ft 391 kts 289°
2026-04-26 19:54 40.87063 -77.81412 38192 ft 391 kts 289°
2026-04-26 19:54 40.88787 -77.88186 38198 ft 391 kts 289°
2026-04-26 19:55 40.90517 -77.95006 38203 ft 391 kts 289°
2026-04-26 19:55 40.91765 -78.02006 38208 ft 391 kts 281°
2026-04-26 19:56 40.92414 -78.09162 38207 ft 392 kts 275°
2026-04-26 19:56 40.92823 -78.16307 38210 ft 392 kts 277°
2026-04-26 19:57 40.93364 -78.23491 38205 ft 392 kts 276°
2026-04-26 19:57 40.93868 -78.30688 38197 ft 392 kts 277°
2026-04-26 19:58 40.94375 -78.37883 38204 ft 393 kts 277°
2026-04-26 19:58 40.94877 -78.45078 38204 ft 393 kts 277°
2026-04-26 19:59 40.95373 -78.52235 38183 ft 393 kts 277°
2026-04-26 19:59 40.95867 -78.59442 38188 ft 393 kts 277°
2026-04-26 20:00 40.96357 -78.66651 38195 ft 393 kts 277°
2026-04-26 20:00 40.96844 -78.73881 38196 ft 394 kts 277°
2026-04-26 20:01 40.97326 -78.81110 38194 ft 394 kts 277°
2026-04-26 20:01 40.97798 -78.88261 38052 ft 386 kts 277°
2026-04-26 20:02 40.98026 -78.91748 37847 ft 376 kts 277°
2026-04-26 20:02 40.98249 -78.95152 37626 ft 367 kts 277°
2026-04-26 20:02 40.98466 -78.98479 37416 ft 359 kts 277°
2026-04-26 20:02 40.98606 -79.00639 37280 ft 353 kts 277°
2026-04-26 20:03 40.98880 -79.04914 37005 ft 344 kts 278°
2026-04-26 20:03 40.99081 -79.08044 36820 ft 339 kts 277°
2026-04-26 20:03 40.99278 -79.11128 36613 ft 334 kts 278°
2026-04-26 20:03 40.99472 -79.14176 36425 ft 329 kts 278°
2026-04-26 20:04 40.99659 -79.17143 36238 ft 325 kts 278°
2026-04-26 20:04 40.99848 -79.20114 35984 ft 325 kts 278°
2026-04-26 20:04 41.00039 -79.23174 35219 ft 343 kts 278°
2026-04-26 20:04 41.00241 -79.26388 34537 ft 357 kts 278°
2026-04-26 20:05 41.00447 -79.29715 33849 ft 367 kts 278°
2026-04-26 20:05 41.00660 -79.33114 33120 ft 374 kts 278°
2026-04-26 20:05 41.00869 -79.36581 32409 ft 380 kts 277°
2026-04-26 20:05 41.01078 -79.40078 31753 ft 382 kts 278°
2026-04-26 20:06 41.01289 -79.43590 31108 ft 384 kts 277°
2026-04-26 20:06 41.01503 -79.47134 30445 ft 386 kts 277°
2026-04-26 20:06 41.01722 -79.50687 29714 ft 389 kts 277°
2026-04-26 20:06 41.01937 -79.54270 28971 ft 391 kts 277°
2026-04-26 20:07 41.02151 -79.57867 28250 ft 393 kts 277°
2026-04-26 20:07 41.02365 -79.61474 27540 ft 394 kts 277°
2026-04-26 20:07 41.02580 -79.65106 26846 ft 395 kts 277°
2026-04-26 20:07 41.02796 -79.68741 26163 ft 396 kts 276°
2026-04-26 20:08 41.03005 -79.72333 25510 ft 397 kts 276°
2026-04-26 20:08 41.03215 -79.75958 24865 ft 392 kts 276°
2026-04-26 20:08 41.03425 -79.79532 24246 ft 386 kts 276°
2026-04-26 20:08 41.03628 -79.83049 23611 ft 381 kts 276°
2026-04-26 20:09 41.03825 -79.86536 22897 ft 377 kts 276°
2026-04-26 20:09 41.04021 -79.89977 22190 ft 373 kts 276°
2026-04-26 20:09 41.04214 -79.93388 21517 ft 370 kts 276°
2026-04-26 20:09 41.04405 -79.96773 20838 ft 367 kts 276°
2026-04-26 20:10 41.04596 -80.00128 20195 ft 364 kts 276°
2026-04-26 20:10 41.04780 -80.03456 19656 ft 359 kts 276°
2026-04-26 20:10 41.04961 -80.06732 19118 ft 354 kts 277°
2026-04-26 20:10 41.05140 -80.09968 18606 ft 351 kts 277°
2026-04-26 20:11 41.05256 -80.12094 18233 ft 348 kts 276°
2026-04-26 20:11 41.05472 -80.16307 17510 ft 343 kts 276°
2026-04-26 20:11 41.05595 -80.19449 16996 ft 339 kts 275°
2026-04-26 20:12 41.05744 -80.25638 16070 ft 332 kts 274°
2026-04-26 20:12 41.05790 -80.27696 15771 ft 330 kts 274°
2026-04-26 20:12 41.05857 -80.30729 15329 ft 327 kts 274°
2026-04-26 20:12 41.05920 -80.33684 14904 ft 325 kts 274°
2026-04-26 20:13 41.05980 -80.36675 14502 ft 322 kts 274°
2026-04-26 20:13 41.06042 -80.39624 14098 ft 319 kts 274°
2026-04-26 20:13 41.06108 -80.42564 13667 ft 317 kts 275°
2026-04-26 20:13 41.06170 -80.45481 13217 ft 315 kts 274°
2026-04-26 20:14 41.06231 -80.48375 12808 ft 313 kts 274°
2026-04-26 20:14 41.06287 -80.51245 12401 ft 310 kts 274°
2026-04-26 20:14 41.06342 -80.54085 12048 ft 306 kts 274°
2026-04-26 20:14 41.06398 -80.56864 11705 ft 303 kts 274°
2026-04-26 20:15 41.06450 -80.59637 11361 ft 300 kts 274°
2026-04-26 20:15 41.06502 -80.62388 11025 ft 297 kts 274°
2026-04-26 20:15 41.06549 -80.64918 10715 ft 294 kts 274°
2026-04-26 20:15 41.06600 -80.67626 10373 ft 292 kts 274°
2026-04-26 20:16 41.06651 -80.70301 10047 ft 289 kts 274°
2026-04-26 20:16 41.06699 -80.72959 9683 ft 287 kts 274°
2026-04-26 20:16 41.06745 -80.75617 9354 ft 290 kts 274°
2026-04-26 20:16 41.06794 -80.78307 9034 ft 293 kts 274°
2026-04-26 20:17 41.06841 -80.81020 8737 ft 294 kts 274°
2026-04-26 20:17 41.06885 -80.83693 8442 ft 293 kts 274°
2026-04-26 20:17 41.06933 -80.86385 8150 ft 291 kts 274°
2026-04-26 20:17 41.06977 -80.89039 7848 ft 285 kts 274°
2026-04-26 20:18 41.07021 -80.91644 7553 ft 280 kts 274°
2026-04-26 20:18 41.07047 -80.94211 7241 ft 277 kts 270°
2026-04-26 20:18 41.06809 -80.96728 6950 ft 275 kts 262°
2026-04-26 20:18 41.06413 -80.99191 6666 ft 272 kts 258°
2026-04-26 20:19 41.05986 -81.01622 6378 ft 269 kts 259°
2026-04-26 20:19 41.05582 -81.04023 6090 ft 265 kts 260°
2026-04-26 20:19 41.05229 -81.06401 5812 ft 262 kts 261°
2026-04-26 20:19 41.04914 -81.08762 5519 ft 259 kts 261°
2026-04-26 20:20 41.04600 -81.11106 5360 ft 259 kts 261°
2026-04-26 20:20 41.04279 -81.13464 5192 ft 261 kts 260°
2026-04-26 20:20 41.03941 -81.15838 5022 ft 263 kts 260°
2026-04-26 20:20 41.03610 -81.18196 4868 ft 265 kts 260°
2026-04-26 20:21 41.03269 -81.20600 4690 ft 262 kts 259°
2026-04-26 20:21 41.02919 -81.22924 4493 ft 253 kts 259°
2026-04-26 20:21 41.02583 -81.25169 4344 ft 244 kts 259°
2026-04-26 20:21 41.02229 -81.27346 4198 ft 241 kts 252°
2026-04-26 20:22 41.01291 -81.29128 4064 ft 237 kts 218°
2026-04-26 20:22 41.00022 -81.30518 3949 ft 238 kts 219°
2026-04-26 20:22 40.98809 -81.32034 3844 ft 240 kts 223°
2026-04-26 20:22 40.97409 -81.33188 3708 ft 239 kts 199°
2026-04-26 20:23 40.95851 -81.33971 3607 ft 241 kts 199°
2026-04-26 20:23 40.94280 -81.34769 3426 ft 245 kts 199°
2026-04-26 20:23 40.92704 -81.35556 3221 ft 239 kts 198°
2026-04-26 20:23 40.91166 -81.36326 3107 ft 231 kts 198°
2026-04-26 20:24 40.89713 -81.37047 3050 ft 223 kts 199°
2026-04-26 20:24 40.88262 -81.37761 3017 ft 221 kts 198°
2026-04-26 20:24 40.86813 -81.38480 3001 ft 221 kts 199°
2026-04-26 20:24 40.85403 -81.39182 2996 ft 210 kts 198°
2026-04-26 20:25 40.84088 -81.39849 3000 ft 195 kts 199°
2026-04-26 20:25 40.83270 -81.40333 2975 ft 188 kts 213°
2026-04-26 20:25 40.82125 -81.41880 2952 ft 167 kts 230°
2026-04-26 20:25 40.81735 -81.43294 2890 ft 167 kts 277°
2026-04-26 20:26 40.81861 -81.44674 2940 ft 141 kts 277°
2026-04-26 20:26 40.81956 -81.45893 2946 ft 124 kts 279°
2026-04-26 20:26 40.82044 -81.46974 2769 ft 115 kts 279°
2026-04-26 20:26 40.81629 -81.48052 1578 ft 169 kts 223°
2026-04-26 20:27 40.81042 -81.49114 2388 ft 137 kts 245°
2026-04-26 20:27 40.81152 -81.50356 2381 ft 143 kts 304°
2026-04-26 20:27 40.81689 -81.51461 2423 ft 141 kts 308°
2026-04-26 20:27 40.82328 -81.52419 2490 ft 140 kts 321°
2026-04-26 20:28 40.83134 -81.53183 2404 ft 149 kts 336°
2026-04-26 20:28 40.84116 -81.53620 2675 ft 145 kts 353°
2026-04-26 20:28 40.85127 -81.53596 2896 ft 149 kts 12°
2026-04-26 20:28 40.85977 -81.52965 2587 ft 134 kts 53°
2026-04-26 20:29 40.86482 -81.52026 2465 ft 120 kts 55°
2026-04-26 20:29 40.86953 -81.51174 2316 ft 111 kts 55°
2026-04-26 20:29 40.87393 -81.50372 2144 ft 107 kts 53°
2026-04-26 20:29 40.87893 -81.49558 1881 ft 125 kts 47°
2026-04-26 20:30 40.88507 -81.48686 1825 ft 130 kts 47°
2026-04-26 20:30 40.89113 -81.47795 1655 ft 131 kts 49°
2026-04-26 20:30 40.89722 -81.46884 1431 ft 133 kts 46°
2026-04-26 20:30 40.90333 -81.46003 1270 ft 126 kts 47°
2026-04-26 20:31 40.90888 -81.45197 1197 ft 102 kts 49°
2026-04-26 20:31 40.91293 -81.44606 1210 ft 76 kts 48°
2026-04-26 20:31 40.91588 -81.44185 1220 ft 47 kts 46°
2026-04-26 20:31 40.91778 -81.43908 1223 ft 34 kts 49°
2026-04-26 20:32 40.91785 -81.43818 1225 ft 1 kts 138°
2026-04-26 20:32 40.91776 -81.43812 1225 ft 5 kts 161°
2026-04-26 20:32 40.91737 -81.43795 1225 ft 7 kts 162°
2026-04-26 20:32 40.91714 -81.43797 1225 ft 5 kts 197°
2026-04-26 20:33 40.91670 -81.43840 1224 ft 11 kts 227°
2026-04-26 20:33 40.91600 -81.43914 1222 ft 14 kts 211°
2026-04-26 20:33 40.91516 -81.43922 1221 ft 7 kts 158°
2026-04-26 20:33 40.91485 -81.43911 1221 ft 2 kts 147°
2026-04-26 20:34 40.91480 -81.43905 1221 ft 1 kts 119°
2026-04-26 20:34 40.91471 -81.43868 1221 ft 7 kts 98°
2026-04-26 20:34 40.91468 -81.43793 1221 ft 8 kts 93°
2026-04-26 20:34 40.91467 -81.43768 1222 ft 1 kts 91°
2026-04-26 20:35 40.91467 -81.43765 1222 ft 0 kts 92°
2026-04-26 20:35 40.91467 -81.43760 1222 ft 1 kts 91°
2026-04-26 20:35 40.91466 -81.43751 1222 ft 1 kts 92°
2026-04-26 20:35 40.91466 -81.43744 1222 ft 0 kts 92°
2026-04-26 20:36 40.91466 -81.43741 1222 ft 0 kts 92°